Date String (YYYY-MM-DD hh:mm:ss) UTC,Instrument flags,Ambient pressure (hPa),Sample flow (lpm),Bypass flow (lpm),Sample temperature (°C),Ambient temperature (°C),ASC tube jacket temperature (°C),LED temperature (°C),Box temperature (°C),Sample RH (%),Span deviation,Mass concentration (μg/m³),Mass concentration (μg/m³),Mass concentration (μg/m³)
DateTimeUTC,F1_M11,P_M11,Q1_M11,Q2_M11,T1_M11,T2_M11,T3_M11,T4_M11,T5_M11,U1_M11,ZSPAN_M11,X0_M11,X2_M11,X1_M11
2022-10-25 06:00:00,,0820.8,5.00,0.00,23.0,21.6,00.0,31.7,24.9,08.2,0000.0,0004.03,0002.16,0001.91
2022-10-25 06:01:00,,0820.7,5.01,0.00,23.0,21.6,00.0,31.7,24.9,08.3,0000.0,0003.97,0002.13,0001.91
2022-10-25 06:02:00,,0820.7,4.98,0.00,23.0,21.6,00.0,31.8,24.9,08.3,0000.0,0003.94,0002.11,0001.91
2022-10-25 06:03:00,,0820.7,5.01,0.00,23.0,21.6,00.0,31.8,24.9,08.3,0000.0,0003.93,0002.08,0001.91
2022-10-25 06:04:00,,0820.7,5.00,0.00,23.0,21.5,00.0,31.8,24.9,08.4,0000.0,0003.94,0002.09,0001.92
2022-10-25 06:05:00,,0820.7,5.01,0.00,23.0,21.5,00.0,31.8,24.8,08.4,0000.0,0004.04,0002.13,0001.92
2022-10-25 06:06:00,,0820.8,5.00,0.00,22.9,21.4,00.0,31.8,24.9,08.4,0000.0,0004.12,0002.17,0001.93
2022-10-25 06:07:00,,0820.8,4.99,0.00,23.0,21.5,00.0,31.8,24.9,08.4,0000.0,0004.22,0002.20,0001.93
2022-10-25 06:08:00,,0820.8,4.99,0.00,23.0,21.5,00.0,31.8,24.9,08.4,0000.0,0004.27,0002.21,0001.94
2022-10-25 06:09:00,,0820.8,5.01,0.00,23.0,21.5,00.0,31.8,24.9,08.4,0000.0,0004.07,0002.19,0001.93
2022-10-25 06:10:00,,0820.8,5.00,0.00,23.0,21.5,00.0,31.8,24.9,08.4,0000.0,0003.04,0002.17,0001.92
2022-10-25 06:11:00,,0820.8,5.01,0.00,23.0,21.5,00.0,31.8,24.9,08.4,0000.0,0003.38,0002.17,0001.92
2022-10-25 06:12:00,,0820.7,4.97,0.00,23.0,21.5,00.0,31.8,24.9,08.3,0000.0,0003.50,0002.19,0001.92
2022-10-25 06:13:00,,0820.7,5.02,0.00,23.0,21.5,00.0,31.8,24.9,08.3,0000.0,0003.61,0002.21,0001.93
2022-10-25 06:14:00,,0820.7,4.98,0.00,23.0,21.5,00.0,31.8,24.8,08.3,0000.0,0003.63,0002.23,0001.93
2022-10-25 06:15:00,,0820.7,5.00,0.00,23.0,21.5,00.0,31.8,24.8,08.4,0000.0,0003.64,0002.22,0001.94
2022-10-25 06:16:00,,0820.7,5.01,0.00,23.0,21.5,00.0,31.8,24.8,08.3,0000.0,0003.61,0002.21,0001.95
2022-10-25 06:17:00,,0820.7,4.98,0.00,23.0,21.5,00.0,31.8,24.8,08.3,0000.0,0003.58,0002.19,0001.95
2022-10-25 06:18:00,,0820.7,5.03,0.00,22.9,21.4,00.0,31.8,24.8,08.3,0000.0,0003.62,0002.20,0001.94
2022-10-25 06:19:00,,0820.7,4.99,0.00,23.0,21.4,00.0,31.8,24.8,08.3,0000.0,0003.99,0002.21,0001.94
2022-10-25 06:20:00,,0820.7,5.00,0.00,23.0,21.4,00.0,31.8,24.8,08.2,0000.0,0004.02,0002.24,0001.96
2022-10-25 06:21:00,,0820.7,5.00,0.00,23.0,21.4,00.0,31.8,24.8,08.2,0000.0,0004.20,0002.27,0001.97
2022-10-25 06:22:00,,0820.7,5.00,0.00,23.0,21.4,00.0,31.8,24.8,08.2,0000.0,0003.95,0002.29,0001.98
2022-10-25 06:23:00,,0820.7,4.99,0.00,22.9,21.4,00.0,31.8,24.8,08.2,0000.0,0003.81,0002.28,0001.98
2022-10-25 06:24:00,,0820.7,5.00,0.00,23.0,21.4,00.0,31.8,24.9,08.2,0000.0,0003.64,0002.26,0001.99
2022-10-25 06:25:00,,0820.7,5.01,0.00,23.0,21.4,00.0,31.8,24.9,08.1,0000.0,0003.58,0002.26,0002.01
2022-10-25 06:26:00,,0820.7,5.01,0.00,23.0,21.4,00.0,31.8,24.8,08.1,0000.0,0003.51,0002.26,0002.01
2022-10-25 06:27:00,,0820.7,5.00,0.00,22.9,21.4,00.0,31.8,24.8,08.1,0000.0,0003.85,0002.27,0002.00
2022-10-25 06:28:00,,0820.7,5.00,0.00,22.9,21.4,00.0,31.8,24.8,08.2,0000.0,0003.94,0002.25,0001.98
2022-10-25 06:29:00,,0820.7,4.97,0.00,22.9,21.4,00.0,31.8,24.8,08.2,0000.0,0003.90,0002.24,0001.98
2022-10-25 06:30:00,,0820.7,5.01,0.00,22.9,21.4,00.0,31.8,24.8,08.4,0000.0,0003.56,0002.23,0001.98
2022-10-25 06:31:00,,0820.7,5.01,0.00,22.9,21.4,00.0,31.8,24.8,08.3,0000.0,0003.45,0002.20,0001.96
2022-10-25 06:32:00,,0820.7,5.01,0.00,22.9,21.4,00.0,31.8,24.8,08.3,0000.0,0003.27,0002.21,0001.97
2022-10-25 06:33:00,,0820.6,4.98,0.00,22.9,21.4,00.0,31.8,24.8,08.5,0000.0,0003.27,0002.20,0001.96
2022-10-25 06:34:00,,0820.6,5.00,0.00,22.9,21.4,00.0,31.8,24.8,08.6,0000.0,0003.30,0002.20,0001.95
2022-10-25 06:35:00,,0820.7,5.00,0.00,22.9,21.3,00.0,31.8,24.8,08.7,0000.0,0003.27,0002.18,0001.92
2022-10-25 06:36:00,,0820.7,5.00,0.00,22.9,21.3,00.0,31.7,24.7,08.8,0000.0,0003.27,0002.16,0001.90
2022-10-25 06:37:00,,0820.7,5.00,0.00,22.9,21.3,00.0,31.7,24.8,08.7,0000.0,0003.54,0002.18,0001.88
2022-10-25 06:38:00,,0820.7,5.00,0.00,22.9,21.3,00.0,31.7,24.7,08.7,0000.0,0003.24,0002.16,0001.87
2022-10-25 06:39:00,,0820.6,5.01,0.00,22.9,21.3,00.0,31.7,24.7,08.5,0000.0,0003.16,0002.17,0001.87
2022-10-25 06:40:00,,0820.6,5.00,0.00,22.9,21.3,00.0,31.7,24.7,08.6,0000.0,0003.16,0002.17,0001.86
2022-10-25 06:41:00,,0820.6,5.00,0.00,22.9,21.3,00.0,31.7,24.7,08.7,0000.0,0003.08,0002.13,0001.85
2022-10-25 06:42:00,,0820.6,5.00,0.00,22.9,21.3,00.0,31.7,24.7,08.8,0000.0,0003.02,0002.11,0001.84
2022-10-25 06:43:00,,0820.6,5.00,0.00,22.9,21.3,00.0,31.7,24.7,08.8,0000.0,0002.96,0002.06,0001.82
2022-10-25 06:44:00,,0820.6,5.00,0.00,22.9,21.3,00.0,31.7,24.8,08.8,0000.0,0003.67,0002.02,0001.80
2022-10-25 06:45:00,,0820.6,5.00,0.00,22.9,21.4,00.0,31.7,24.8,08.8,0000.0,0004.68,0002.03,0001.79
2022-10-25 06:46:00,,0820.6,5.00,0.00,22.9,21.4,00.0,31.7,24.8,08.8,0000.0,0004.75,0002.06,0001.80
2022-10-25 06:47:00,,0820.6,5.00,0.00,22.9,21.4,00.0,31.7,24.7,08.8,0000.0,0004.80,0002.08,0001.80
2022-10-25 06:48:00,,0820.5,4.99,0.00,22.9,21.4,00.0,31.7,24.8,08.8,0000.0,0004.56,0002.07,0001.80
2022-10-25 06:49:00,,0820.5,5.01,0.00,22.9,21.4,00.0,31.7,24.8,08.9,0000.0,0004.53,0002.05,0001.79
2022-10-25 06:50:00,,0820.6,5.00,0.00,22.9,21.4,00.0,31.7,24.8,08.8,0000.0,0004.52,0002.04,0001.79
2022-10-25 06:51:00,,0820.6,5.00,0.00,22.9,21.4,00.0,31.7,24.8,08.7,0000.0,0004.42,0002.01,0001.78
2022-10-25 06:52:00,,0820.6,5.00,0.00,22.9,21.4,00.0,31.7,24.8,08.6,0000.0,0004.46,0002.02,0001.76
2022-10-25 06:53:00,,0820.6,4.99,0.00,22.9,21.4,00.0,31.7,24.8,08.7,0000.0,0004.44,0002.01,0001.76
2022-10-25 06:54:00,,0820.7,4.99,0.00,22.9,21.4,00.0,31.7,24.8,08.7,0000.0,0004.37,0001.98,0001.75
2022-10-25 06:55:00,,0820.6,5.00,0.00,22.9,21.4,00.0,31.7,24.8,08.8,0000.0,0003.59,0001.98,0001.75
2022-10-25 06:56:00,,0820.6,5.00,0.00,22.9,21.4,00.0,31.7,24.8,08.8,0000.0,0002.62,0001.97,0001.74
2022-10-25 06:57:00,,0820.6,5.00,0.00,22.9,21.4,00.0,31.7,24.8,08.7,0000.0,0002.74,0001.97,0001.73
2022-10-25 06:58:00,,0820.6,5.00,0.00,22.9,21.4,00.0,31.7,24.8,08.7,0000.0,0002.68,0001.94,0001.72
2022-10-25 06:59:00,,0820.6,5.00,0.00,22.9,21.4,00.0,31.7,24.8,08.7,0000.0,0002.62,0001.92,0001.71
